Flag for South Africa Weather past 2 weeks in Pretoria, South Africa

Now
66 °F

Mild.


Feels Like: 66 °F
Forecast: 60 / 80 °F
Wind: 2 mph from Northeast

Location: Waterkloof Lmb

Current Time: Mar 31, 2015 at 8:54:06 PM

Latest Report: Mar 31, 2015 at 8:00 PM


Visibility: N/A

Pressure: 30.30 "Hg

Humidity: 68%

Dew point: 55 °F

Location of PretoriaLocation

Historic Weather in Pretoria — Graph

°F

Pretoria temperature yesterday

Maximum temperature yesterday: 79 °F (at 3:00 PM)
Minimum temperature yesterday: 59 °F (at 5:00 AM)
Average temperature yesterday: 67 °F

Past Weeks' High & Low Weather Summary

 TemperatureHumidityPressure
High88 °F (Mar 17, 4:00 PM)100% (Mar 20, 4:00 AM)30.42 "Hg (Mar 20, 4:00 AM)
Low57 °F (Mar 20, 4:00 AM)21% (Mar 17, 4:00 PM)30.09 "Hg (Mar 17, 4:00 PM)
Average69 °F66%30.22 "Hg
* Reported Mar 16 8:00 PM — Mar 31 8:00 PM, Pretoria, Weather by CustomWeather, © 2015

Note: Actual official high and low records may vary slightly from our data, if they occured in-between our weather recording intervals... More about our weather records

Advertising

Pretoria weather history for previous 24 hours

 ConditionsComfort  
Time TempWeatherWind HumidityBarometerVisibility
8:00 PM
Tue, Mar 31
66 °FMild.2 mph68%30.30 "HgN/A
7:00 PM66 °FMild.No wind60%30.27 "HgN/A
6:00 PM70 °FMild.3 mph53%30.24 "HgN/A
5:00 PM72 °FMild.5 mph50%30.24 "HgN/A
4:00 PM72 °FMild.5 mph57%30.24 "HgN/A
3:00 PM72 °FMild.8 mph53%30.24 "HgN/A
2:00 PM73 °FMild.8 mph53%30.27 "HgN/A
1:00 PM75 °FMild.7 mph50%30.30 "HgN/A
12:00 PM72 °FMild.5 mph57%30.33 "HgN/A
11:00 AM70 °FMild.6 mph64%30.36 "HgN/A
10:00 AM68 °FMild.7 mph64%30.36 "HgN/A
9:00 AM68 °FMild.5 mph69%30.36 "HgN/A
8:00 AM63 °FPartly sunny.6 mphN/A30.42 "Hg4 mi
7:00 AM61 °FCool.3 mph83%30.33 "HgN/A
6:00 AM61 °FCool.3 mph83%30.30 "HgN/A
5:00 AM61 °FCool.2 mph83%30.27 "HgN/A
3:00 AM61 °FCool.3 mph83%30.27 "HgN/A
2:00 AM63 °FMild.1 mph77%30.27 "HgN/A
1:00 AM63 °FMild.5 mph73%30.27 "HgN/A
12:00 AM63 °FMild.7 mph73%30.27 "HgN/A
11:00 PM
Mon, Mar 30
64 °FMild.5 mph68%30.24 "HgN/A
10:00 PM66 °FMild.6 mph68%30.24 "HgN/A
9:00 PM63 °FMild.1 mph73%30.24 "HgN/A
8:00 PM66 °FMild.3 mph64%30.24 "HgN/A
Weather by CustomWeather, © 2015

See weather overviewHow to use our weather pages